STARLINK-34762 (65473 NORAD) Tracking and Keplerian Element Data

This shows tracking and keplerian element data for the satellite.

Feedback or suggestion? Click here.




ElementValue
Catalog65473
NameSTARLINK-34762
Epoch Orbit1777
Epoch Day354.0088733
Epoch Year2025
RAAN268.3332
Inclination53.1596
Eccentricity0.0001172
Argument of Perigee100.1294
Mean Anonmoly259.9839
Mean Motion15.30205159
Decay Rate0.00023858
L11 65473U 25195R 25354.00887330 .00023858 00000+0 81493-3 0 9998
L22 65473 53.1596 268.3332 0001172 100.1294 259.9839 15.30205159 17779



Live tracking and technical data element details for STARLINK-34762 (NORAD 65473). STARLINK-34762 can be tracked NOW for your location showing map with azimuth and elevation plus other details from your city location.







IsCatalogInMostPopularTable: catalog: 65473, numindb: 4
Update: records affected: 1



GetName: 65473 STARLINK-34762

Hit Count: updated at: Sun, 08 Feb 2026 18:17:21 GMT